Time,TemperatureF,DewpointF,PressureIn,WindDirection,WindDirectionDegrees,WindSpeedMPH,WindSpeedGustMPH,Humidity,HourlyPrecipIn,Conditions,Clouds,dailyrainin,SoftwareType,DateUTC
2013-03-02 00:04:00,32.0,28.0,29.34,WNW,292,2.0,7.0,85,0.00,,,0.00,Weather View 32 v70,2013-03-02 05:04:00,
2013-03-02 00:09:00,32.0,28.0,29.34,West,270,1.0,7.0,85,0.00,,,0.00,Weather View 32 v70,2013-03-02 05:09:00,
2013-03-02 00:14:00,32.0,28.0,29.35,WNW,292,2.0,7.0,85,0.00,,,0.00,Weather View 32 v70,2013-03-02 05:14:00,
2013-03-02 00:19:00,32.0,28.0,29.35,West,270,1.0,7.0,85,0.00,,,0.00,Weather View 32 v70,2013-03-02 05:19:00,
2013-03-02 00:24:00,32.0,28.0,29.35,NW,315,2.0,8.0,85,0.00,,,0.00,Weather View 32 v70,2013-03-02 05:24:00,
2013-03-02 00:29:00,32.0,28.0,29.35,West,270,1.0,8.0,85,0.00,,,0.00,Weather View 32 v70,2013-03-02 05:29:00,
2013-03-02 00:34:00,32.0,28.0,29.35,West,270,0.0,8.0,85,0.00,,,0.00,Weather View 32 v70,2013-03-02 05:34:00,
2013-03-02 00:39:00,32.0,28.0,29.35,WNW,292,3.0,8.0,85,0.00,,,0.00,Weather View 32 v70,2013-03-02 05:39:00,
2013-03-02 00:44:00,32.0,28.0,29.35,ESE,112,0.0,8.0,85,0.00,,,0.00,Weather View 32 v70,2013-03-02 05:44:00,
2013-03-02 00:49:00,32.0,28.0,29.35,NW,315,6.0,8.0,85,0.00,,,0.00,Weather View 32 v70,2013-03-02 05:49:00,
2013-03-02 00:52:00,32.0,28.0,29.35,NW,315,6.0,8.0,85,0.00,,,0.00,Weather View 32 v70,2013-03-02 05:52:00,
2013-03-02 00:59:00,32.0,28.0,29.35,NNW,337,1.0,8.0,85,0.00,,,0.00,Weather View 32 v70,2013-03-02 05:59:00,
2013-03-02 01:04:00,32.0,28.0,29.35,West,270,1.0,8.0,85,0.00,,,0.00,Weather View 32 v70,2013-03-02 06:04:00,
2013-03-02 01:09:00,32.0,28.0,29.35,West,270,3.0,8.0,85,0.00,,,0.00,Weather View 32 v70,2013-03-02 06:09:00,
2013-03-02 01:14:00,32.0,28.0,29.34,WNW,292,0.0,8.0,85,0.00,,,0.00,Weather View 32 v70,2013-03-02 06:14:00,
2013-03-02 01:19:00,32.0,28.0,29.34,NW,315,0.0,8.0,85,0.00,,,0.00,Weather View 32 v70,2013-03-02 06:19:00,
2013-03-02 01:24:00,32.0,28.0,29.34,NW,315,4.0,6.0,85,0.00,,,0.00,Weather View 32 v70,2013-03-02 06:24:00,
2013-03-02 01:29:00,32.0,28.0,29.34,SE,135,0.0,6.0,85,0.00,,,0.00,Weather View 32 v70,2013-03-02 06:29:00,
2013-03-02 01:34:00,32.0,28.0,29.34,WNW,292,0.0,6.0,85,0.00,,,0.00,Weather View 32 v70,2013-03-02 06:34:00,
2013-03-02 01:39:00,32.0,28.3,29.34,WNW,292,0.0,6.0,86,0.00,,,0.00,Weather View 32 v70,2013-03-02 06:39:00,
2013-03-02 01:44:00,32.0,28.0,29.34,WNW,292,0.0,6.0,85,0.00,,,0.00,Weather View 32 v70,2013-03-02 06:44:00,
2013-03-02 01:49:00,32.0,28.0,29.34,NW,315,0.0,6.0,85,0.00,,,0.00,Weather View 32 v70,2013-03-02 06:49:00,
2013-03-02 01:54:00,32.0,28.0,29.33,West,270,0.0,6.0,85,0.00,,,0.00,Weather View 32 v70,2013-03-02 06:54:00,
2013-03-02 01:59:00,31.0,27.3,29.33,West,270,0.0,5.0,86,0.00,,,0.00,Weather View 32 v70,2013-03-02 06:59:00,
2013-03-02 02:04:00,31.0,27.3,29.34,SW,225,0.0,5.0,86,0.00,,,0.00,Weather View 32 v70,2013-03-02 07:04:00,
2013-03-02 02:09:00,31.0,27.3,29.34,North,360,1.0,5.0,86,0.00,,,0.00,Weather View 32 v70,2013-03-02 07:09:00,
2013-03-02 02:14:00,31.0,27.3,29.34,West,270,2.0,5.0,86,0.00,,,0.00,Weather View 32 v70,2013-03-02 07:14:00,
2013-03-02 02:19:00,31.0,27.3,29.34,North,360,0.0,5.0,86,0.00,,,0.00,Weather View 32 v70,2013-03-02 07:19:00,
2013-03-02 02:24:00,31.0,27.3,29.34,NW,315,0.0,5.0,86,0.00,,,0.00,Weather View 32 v70,2013-03-02 07:24:00,
2013-03-02 02:29:00,31.0,27.3,29.34,NW,315,2.0,5.0,86,0.00,,,0.00,Weather View 32 v70,2013-03-02 07:29:00,
2013-03-02 02:34:00,31.0,27.3,29.33,WNW,292,1.0,6.0,86,0.00,,,0.00,Weather View 32 v70,2013-03-02 07:34:00,
2013-03-02 02:39:00,31.0,27.3,29.33,WNW,292,1.0,6.0,86,0.00,,,0.00,Weather View 32 v70,2013-03-02 07:39:00,
2013-03-02 02:49:00,31.0,27.0,29.33,West,270,0.0,7.0,85,0.00,,,0.00,Weather View 32 v70,2013-03-02 07:49:00,
2013-03-02 02:54:00,31.0,27.3,29.33,NW,315,3.0,7.0,86,0.00,,,0.00,Weather View 32 v70,2013-03-02 07:54:00,
2013-03-02 02:59:00,31.0,27.3,29.33,NW,315,2.0,7.0,86,0.00,,,0.00,Weather View 32 v70,2013-03-02 07:59:00,
2013-03-02 03:04:00,31.0,27.6,29.33,SW,225,0.0,7.0,87,0.00,,,0.00,Weather View 32 v70,2013-03-02 08:04:00,
2013-03-02 03:09:00,31.0,27.6,29.33,SW,225,0.0,7.0,87,0.00,,,0.00,Weather View 32 v70,2013-03-02 08:09:00,
2013-03-02 03:14:00,30.0,26.3,29.33,West,270,0.0,7.0,86,0.00,,,0.00,Weather View 32 v70,2013-03-02 08:14:00,
2013-03-02 03:19:00,30.0,26.6,29.33,West,270,0.0,7.0,87,0.00,,,0.00,Weather View 32 v70,2013-03-02 08:19:00,
2013-03-02 03:24:00,30.0,26.6,29.33,West,270,1.0,7.0,87,0.00,,,0.00,Weather View 32 v70,2013-03-02 08:24:00,
2013-03-02 03:29:00,30.0,26.6,29.33,West,270,2.0,7.0,87,0.00,,,0.00,Weather View 32 v70,2013-03-02 08:29:00,
2013-03-02 03:34:00,30.0,26.6,29.33,NW,315,0.0,7.0,87,0.00,,,0.00,Weather View 32 v70,2013-03-02 08:34:00,
2013-03-02 03:39:00,30.0,26.9,29.33,NW,315,0.0,7.0,88,0.00,,,0.00,Weather View 32 v70,2013-03-02 08:39:00,
2013-03-02 03:44:00,30.0,26.9,29.33,West,270,1.0,7.0,88,0.00,,,0.00,Weather View 32 v70,2013-03-02 08:44:00,
2013-03-02 03:49:00,30.0,27.2,29.33,WNW,292,1.0,6.0,89,0.00,,,0.00,Weather View 32 v70,2013-03-02 08:49:00,
2013-03-02 03:54:00,30.0,26.6,29.33,WNW,292,1.0,6.0,87,0.00,,,0.00,Weather View 32 v70,2013-03-02 08:54:00,
2013-03-02 03:59:00,30.0,26.6,29.33,West,270,2.0,7.0,87,0.00,,,0.00,Weather View 32 v70,2013-03-02 08:59:00,
2013-03-02 04:04:00,30.0,26.6,29.33,West,270,0.0,7.0,87,0.00,,,0.00,Weather View 32 v70,2013-03-02 09:04:00,
2013-03-02 04:09:00,30.0,26.6,29.33,NW,315,1.0,7.0,87,0.00,,,0.00,Weather View 32 v70,2013-03-02 09:09:00,
2013-03-02 04:14:00,30.0,26.6,29.33,WNW,292,1.0,7.0,87,0.00,,,0.00,Weather View 32 v70,2013-03-02 09:14:00,
2013-03-02 04:19:00,30.0,26.9,29.33,West,270,1.0,7.0,88,0.00,,,0.00,Weather View 32 v70,2013-03-02 09:19:00,
2013-03-02 04:24:00,30.0,26.6,29.33,West,270,2.0,7.0,87,0.00,,,0.00,Weather View 32 v70,2013-03-02 09:24:00,
2013-03-02 04:29:00,29.0,25.6,29.33,West,270,3.0,7.0,87,0.00,,,0.00,Weather View 32 v70,2013-03-02 09:29:00,
2013-03-02 04:34:00,29.0,25.6,29.33,West,270,3.0,7.0,87,0.00,,,0.00,Weather View 32 v70,2013-03-02 09:34:00,
2013-03-02 04:44:00,29.0,25.9,29.34,West,270,1.0,7.0,88,0.00,,,0.00,Weather View 32 v70,2013-03-02 09:44:00,
2013-03-02 04:49:00,29.0,26.2,29.34,West,270,0.0,7.0,89,0.00,,,0.00,Weather View 32 v70,2013-03-02 09:49:00,
2013-03-02 04:54:00,29.0,26.2,29.34,WNW,292,2.0,7.0,89,0.00,,,0.00,Weather View 32 v70,2013-03-02 09:54:00,
2013-03-02 04:59:00,29.0,25.9,29.34,West,270,2.0,6.0,88,0.00,,,0.00,Weather View 32 v70,2013-03-02 09:59:00,
2013-03-02 05:04:00,29.0,26.2,29.34,West,270,2.0,6.0,89,0.00,,,0.00,Weather View 32 v70,2013-03-02 10:04:00,
2013-03-02 05:09:00,29.0,26.2,29.34,West,270,2.0,6.0,89,0.00,,,0.00,Weather View 32 v70,2013-03-02 10:09:00,
2013-03-02 05:14:00,29.0,26.2,29.34,WNW,292,0.0,6.0,89,0.00,,,0.00,Weather View 32 v70,2013-03-02 10:14:00,
2013-03-02 05:19:00,28.0,25.4,29.34,West,270,1.0,6.0,90,0.00,,,0.00,Weather View 32 v70,2013-03-02 10:19:00,
2013-03-02 05:24:00,28.0,25.4,29.34,West,270,1.0,6.0,90,0.00,,,0.00,Weather View 32 v70,2013-03-02 10:24:00,
2013-03-02 05:29:00,28.0,25.4,29.34,West,270,1.0,6.0,90,0.00,,,0.00,Weather View 32 v70,2013-03-02 10:29:00,
2013-03-02 05:34:00,28.0,25.4,29.34,West,270,0.0,6.0,90,0.00,,,0.00,Weather View 32 v70,2013-03-02 10:34:00,
2013-03-02 05:39:00,28.0,25.7,29.34,West,270,0.0,6.0,91,0.00,,,0.00,Weather View 32 v70,2013-03-02 10:39:00,
2013-03-02 05:44:00,28.0,25.7,29.34,West,270,2.0,6.0,91,0.00,,,0.00,Weather View 32 v70,2013-03-02 10:44:00,
2013-03-02 05:49:00,27.0,24.7,29.34,West,270,0.0,6.0,91,0.00,,,0.00,Weather View 32 v70,2013-03-02 10:49:00,
2013-03-02 05:55:00,28.0,25.4,29.34,West,270,3.0,6.0,90,0.00,,,0.00,Weather View 32 v70,2013-03-02 10:55:00,
2013-03-02 06:04:00,28.0,25.4,29.34,West,270,3.0,6.0,90,0.00,,,0.00,Weather View 32 v70,2013-03-02 11:04:00,
2013-03-02 06:09:00,28.0,25.4,29.34,WNW,292,4.0,6.0,90,0.00,,,0.00,Weather View 32 v70,2013-03-02 11:09:00,
2013-03-02 06:14:00,28.0,25.4,29.34,West,270,0.0,6.0,90,0.00,,,0.00,Weather View 32 v70,2013-03-02 11:14:00,
2013-03-02 06:19:00,28.0,25.4,29.34,West,270,1.0,6.0,90,0.00,,,0.00,Weather View 32 v70,2013-03-02 11:19:00,
2013-03-02 06:24:00,27.0,24.7,29.34,NW,315,1.0,6.0,91,0.00,,,0.00,Weather View 32 v70,2013-03-02 11:24:00,
2013-03-02 06:29:00,27.0,24.7,29.34,West,270,2.0,6.0,91,0.00,,,0.00,Weather View 32 v70,2013-03-02 11:29:00,
2013-03-02 06:34:00,27.0,24.7,29.34,West,270,1.0,6.0,91,0.00,,,0.00,Weather View 32 v70,2013-03-02 11:34:00,
2013-03-02 06:39:00,27.0,24.7,29.34,West,270,1.0,6.0,91,0.00,,,0.00,Weather View 32 v70,2013-03-02 11:39:00,
2013-03-02 06:44:00,27.0,24.7,29.34,West,270,0.0,6.0,91,0.00,,,0.00,Weather View 32 v70,2013-03-02 11:44:00,
2013-03-02 06:49:00,27.0,24.7,29.34,WNW,292,3.0,6.0,91,0.00,,,0.00,Weather View 32 v70,2013-03-02 11:49:00,
2013-03-02 06:54:00,28.0,25.4,29.34,West,270,4.0,6.0,90,0.00,,,0.00,Weather View 32 v70,2013-03-02 11:54:00,
2013-03-02 06:59:00,28.0,25.4,29.34,West,270,5.0,6.0,90,0.00,,,0.00,Weather View 32 v70,2013-03-02 11:59:00,
2013-03-02 07:04:00,28.0,25.4,29.34,West,270,0.0,6.0,90,0.00,,,0.00,Weather View 32 v70,2013-03-02 12:04:00,
2013-03-02 07:09:00,29.0,26.2,29.34,NW,315,2.0,6.0,89,0.00,,,0.00,Weather View 32 v70,2013-03-02 12:09:00,
2013-03-02 07:14:00,29.0,26.2,29.34,WNW,292,3.0,6.0,89,0.00,,,0.00,Weather View 32 v70,2013-03-02 12:14:00,
2013-03-02 07:19:00,29.0,25.9,29.34,NW,315,4.0,6.0,88,0.00,,,0.00,Weather View 32 v70,2013-03-02 12:19:00,
2013-03-02 07:24:00,30.0,26.6,29.33,West,270,2.0,6.0,87,0.00,,,0.00,Weather View 32 v70,2013-03-02 12:24:00,
2013-03-02 07:29:00,30.0,26.3,29.33,West,270,6.0,6.0,86,0.00,,,0.00,Weather View 32 v70,2013-03-02 12:29:00,
2013-03-02 07:34:00,30.0,26.0,29.34,WNW,292,5.0,6.0,85,0.00,,,0.00,Weather View 32 v70,2013-03-02 12:34:00,
2013-03-02 07:39:00,31.0,27.0,29.34,WNW,292,4.0,6.0,85,0.00,,,0.00,Weather View 32 v70,2013-03-02 12:39:00,
2013-03-02 07:44:00,32.0,27.4,29.34,WNW,292,5.0,7.0,83,0.00,,,0.00,Weather View 32 v70,2013-03-02 12:44:00,
2013-03-02 07:49:00,32.0,27.1,29.34,West,270,3.0,7.0,82,0.00,,,0.00,Weather View 32 v70,2013-03-02 12:49:00,
2013-03-02 07:54:00,33.0,27.8,29.33,West,270,0.0,7.0,81,0.00,,,0.00,Weather View 32 v70,2013-03-02 12:54:00,
2013-03-02 07:59:00,33.0,27.2,29.33,West,270,2.0,7.0,79,0.00,,,0.00,Weather View 32 v70,2013-03-02 12:59:00,
2013-03-02 08:04:00,34.0,27.9,29.33,NW,315,6.0,7.0,78,0.00,,,0.00,Weather View 32 v70,2013-03-02 13:04:00,
2013-03-02 08:09:00,34.0,27.9,29.33,West,270,2.0,7.0,78,0.00,,,0.00,Weather View 32 v70,2013-03-02 13:09:00,
2013-03-02 08:14:00,35.0,28.2,29.33,West,270,3.0,7.0,76,0.00,,,0.00,Weather View 32 v70,2013-03-02 13:14:00,
2013-03-02 08:19:00,35.0,27.9,29.33,SW,225,1.0,7.0,75,0.00,,,0.00,Weather View 32 v70,2013-03-02 13:19:00,
2013-03-02 08:24:00,35.0,27.5,29.33,East,90,1.0,7.0,74,0.00,,,0.00,Weather View 32 v70,2013-03-02 13:24:00,
2013-03-02 08:29:00,36.0,28.2,29.33,NW,315,0.0,7.0,73,0.00,,,0.00,Weather View 32 v70,2013-03-02 13:29:00,
2013-03-02 08:34:00,37.0,28.1,29.32,NW,315,1.0,7.0,70,0.00,,,0.00,Weather View 32 v70,2013-03-02 13:34:00,
2013-03-02 08:39:00,37.0,28.5,29.32,West,270,4.0,7.0,71,0.00,,,0.00,Weather View 32 v70,2013-03-02 13:39:00,
2013-03-02 08:44:00,37.0,28.8,29.33,SSW,202,3.0,7.0,72,0.00,,,0.00,Weather View 32 v70,2013-03-02 13:44:00,
2013-03-02 08:49:00,36.0,27.5,29.33,NE,45,1.0,8.0,71,0.00,,,0.00,Weather View 32 v70,2013-03-02 13:49:00,
2013-03-02 08:54:00,37.0,28.5,29.33,ESE,112,4.0,8.0,71,0.00,,,0.00,Weather View 32 v70,2013-03-02 13:54:00,
2013-03-02 08:59:00,37.0,28.5,29.33,West,270,1.0,8.0,71,0.00,,,0.00,Weather View 32 v70,2013-03-02 13:59:00,
2013-03-02 09:04:00,37.0,27.4,29.32,East,90,5.0,8.0,68,0.00,,,0.00,Weather View 32 v70,2013-03-02 14:04:00,
2013-03-02 09:09:00,38.0,28.7,29.32,West,270,3.0,8.0,69,0.00,,,0.00,Weather View 32 v70,2013-03-02 14:09:00,
2013-03-02 09:14:00,38.0,28.7,29.33,West,270,5.0,8.0,69,0.00,,,0.00,Weather View 32 v70,2013-03-02 14:14:00,
2013-03-02 09:19:00,38.0,29.1,29.33,SW,225,1.0,9.0,70,0.00,,,0.00,Weather View 32 v70,2013-03-02 14:19:00,
2013-03-02 09:24:00,38.0,28.4,29.33,NW,315,2.0,9.0,68,0.00,,,0.00,Weather View 32 v70,2013-03-02 14:24:00,
2013-03-02 09:29:00,38.0,28.7,29.33,ESE,112,0.0,9.0,69,0.00,,,0.00,Weather View 32 v70,2013-03-02 14:29:00,
2013-03-02 09:34:00,38.0,28.4,29.33,SE,135,1.0,9.0,68,0.00,,,0.00,Weather View 32 v70,2013-03-02 14:34:00,
2013-03-02 09:39:00,38.0,28.4,29.33,SE,135,0.0,9.0,68,0.00,,,0.00,Weather View 32 v70,2013-03-02 14:39:00,
2013-03-02 09:44:00,38.0,28.4,29.33,SE,135,2.0,9.0,68,0.00,,,0.00,Weather View 32 v70,2013-03-02 14:44:00,
2013-03-02 09:49:00,38.0,28.0,29.33,South,180,1.0,9.0,67,0.00,,,0.00,Weather View 32 v70,2013-03-02 14:49:00,
2013-03-02 09:54:00,38.0,28.7,29.33,East,90,2.0,9.0,69,0.00,,,0.00,Weather View 32 v70,2013-03-02 14:54:00,
2013-03-02 09:59:00,38.0,29.4,29.33,WNW,292,0.0,9.0,71,0.00,,,0.00,Weather View 32 v70,2013-03-02 14:59:00,
2013-03-02 10:04:00,37.0,28.1,29.33,WNW,292,3.0,9.0,70,0.00,,,0.00,Weather View 32 v70,2013-03-02 15:04:00,
2013-03-02 10:09:00,37.0,28.8,29.33,NE,45,1.0,9.0,72,0.00,,,0.00,Weather View 32 v70,2013-03-02 15:09:00,
2013-03-02 10:14:00,37.0,28.5,29.33,SW,225,0.0,9.0,71,0.00,,,0.00,Weather View 32 v70,2013-03-02 15:14:00,
2013-03-02 10:19:00,37.0,28.5,29.33,ESE,112,0.0,8.0,71,0.00,,,0.00,Weather View 32 v70,2013-03-02 15:19:00,
2013-03-02 10:24:00,37.0,28.1,29.33,West,270,1.0,8.0,70,0.00,,,0.00,Weather View 32 v70,2013-03-02 15:24:00,
2013-03-02 10:29:00,37.0,28.5,29.33,West,270,4.0,8.0,71,0.00,,,0.00,Weather View 32 v70,2013-03-02 15:29:00,
2013-03-02 10:34:00,37.0,29.1,29.33,West,270,3.0,8.0,73,0.00,,,0.00,Weather View 32 v70,2013-03-02 15:34:00,
2013-03-02 10:39:00,37.0,28.8,29.33,West,270,2.0,8.0,72,0.00,,,0.00,Weather View 32 v70,2013-03-02 15:39:00,
2013-03-02 10:44:00,37.0,28.8,29.33,NW,315,3.0,8.0,72,0.00,,,0.00,Weather View 32 v70,2013-03-02 15:44:00,
2013-03-02 10:49:00,37.0,28.8,29.33,WNW,292,3.0,7.0,72,0.00,,,0.00,Weather View 32 v70,2013-03-02 15:49:00,
2013-03-02 10:54:00,37.0,29.1,29.33,NW,315,0.0,8.0,73,0.00,,,0.00,Weather View 32 v70,2013-03-02 15:54:00,
2013-03-02 10:59:00,37.0,29.5,29.33,West,270,0.0,8.0,74,0.00,,,0.00,Weather View 32 v70,2013-03-02 15:59:00,
2013-03-02 11:04:00,37.0,29.1,29.33,West,270,0.0,8.0,73,0.00,,,0.00,Weather View 32 v70,2013-03-02 16:04:00,
2013-03-02 11:09:00,38.0,29.4,29.33,East,90,5.0,8.0,71,0.00,,,0.00,Weather View 32 v70,2013-03-02 16:09:00,
2013-03-02 11:14:00,38.0,29.8,29.33,East,90,2.0,8.0,72,0.00,,,0.00,Weather View 32 v70,2013-03-02 16:14:00,
2013-03-02 11:19:00,38.0,30.1,29.33,NE,45,0.0,8.0,73,0.00,,,0.00,Weather View 32 v70,2013-03-02 16:19:00,
2013-03-02 11:24:00,38.0,29.8,29.33,West,270,4.0,8.0,72,0.00,,,0.00,Weather View 32 v70,2013-03-02 16:24:00,
2013-03-02 11:29:00,39.0,31.1,29.33,East,90,0.0,8.0,73,0.00,,,0.00,Weather View 32 v70,2013-03-02 16:29:00,
2013-03-02 11:34:00,39.0,31.1,29.32,East,90,5.0,8.0,73,0.00,,,0.00,Weather View 32 v70,2013-03-02 16:34:00,
2013-03-02 11:39:00,40.0,31.3,29.32,West,270,4.0,8.0,71,0.00,,,0.00,Weather View 32 v70,2013-03-02 16:39:00,
2013-03-02 11:44:00,40.0,31.0,29.31,SW,225,1.0,8.0,70,0.00,,,0.00,Weather View 32 v70,2013-03-02 16:44:00,
2013-03-02 11:49:00,41.0,31.6,29.31,SE,135,1.0,8.0,69,0.00,,,0.00,Weather View 32 v70,2013-03-02 16:49:00,
2013-03-02 11:54:00,41.0,30.1,29.30,East,90,5.0,6.0,65,0.00,,,0.00,Weather View 32 v70,2013-03-02 16:54:00,
2013-03-02 11:59:00,41.0,30.9,29.30,West,270,2.0,6.0,67,0.00,,,0.00,Weather View 32 v70,2013-03-02 16:59:00,
2013-03-02 12:04:00,41.0,30.9,29.30,ESE,112,1.0,6.0,67,0.00,,,0.00,Weather View 32 v70,2013-03-02 17:04:00,
2013-03-02 12:09:00,41.0,30.1,29.30,North,360,0.0,6.0,65,0.00,,,0.00,Weather View 32 v70,2013-03-02 17:09:00,
2013-03-02 12:14:00,42.0,32.2,29.29,WNW,292,1.0,6.0,68,0.00,,,0.00,Weather View 32 v70,2013-03-02 17:14:00,
2013-03-02 12:19:00,42.0,30.3,29.29,South,180,0.0,6.0,63,0.00,,,0.00,Weather View 32 v70,2013-03-02 17:19:00,
2013-03-02 12:24:00,42.0,30.7,29.29,NW,315,0.0,6.0,64,0.00,,,0.00,Weather View 32 v70,2013-03-02 17:24:00,
2013-03-02 12:29:00,41.0,30.9,29.29,NW,315,3.0,8.0,67,0.00,,,0.00,Weather View 32 v70,2013-03-02 17:29:00,
2013-03-02 12:34:00,41.0,31.2,29.29,SW,225,1.0,8.0,68,0.00,,,0.00,Weather View 32 v70,2013-03-02 17:34:00,
2013-03-02 12:39:00,41.0,30.5,29.29,West,270,3.0,8.0,66,0.00,,,0.00,Weather View 32 v70,2013-03-02 17:39:00,
2013-03-02 12:44:00,40.0,29.9,29.29,West,270,4.0,8.0,67,0.00,,,0.00,Weather View 32 v70,2013-03-02 17:44:00,
2013-03-02 12:49:00,40.0,30.6,29.29,WNW,292,2.0,8.0,69,0.00,,,0.00,Weather View 32 v70,2013-03-02 17:49:00,
2013-03-02 12:54:00,40.0,30.3,29.29,NW,315,7.0,10.0,68,0.00,,,0.00,Weather View 32 v70,2013-03-02 17:54:00,
2013-03-02 12:59:00,39.0,30.0,29.29,WNW,292,5.0,10.0,70,0.00,,,0.00,Weather View 32 v70,2013-03-02 17:59:00,
2013-03-02 13:04:00,39.0,29.3,29.29,West,270,7.0,10.0,68,0.00,,,0.00,Weather View 32 v70,2013-03-02 18:04:00,
2013-03-02 13:09:00,39.0,30.0,29.29,WNW,292,6.0,11.0,70,0.00,,,0.00,Weather View 32 v70,2013-03-02 18:09:00,
2013-03-02 13:14:00,40.0,30.3,29.29,ESE,112,2.0,11.0,68,0.00,,,0.00,Weather View 32 v70,2013-03-02 18:14:00,
2013-03-02 13:19:00,40.0,29.9,29.29,ENE,67,1.0,11.0,67,0.00,,,0.00,Weather View 32 v70,2013-03-02 18:19:00,
2013-03-02 13:24:00,40.0,30.3,29.29,West,270,3.0,11.0,68,0.00,,,0.00,Weather View 32 v70,2013-03-02 18:24:00,
2013-03-02 13:29:00,39.0,29.3,29.29,West,270,4.0,11.0,68,0.00,,,0.00,Weather View 32 v70,2013-03-02 18:29:00,
2013-03-02 13:34:00,39.0,29.3,29.28,West,270,7.0,11.0,68,0.00,,,0.00,Weather View 32 v70,2013-03-02 18:34:00,
2013-03-02 13:39:00,39.0,29.3,29.28,SW,225,0.0,11.0,68,0.00,,,0.00,Weather View 32 v70,2013-03-02 18:39:00,
2013-03-02 13:44:00,40.0,30.3,29.28,West,270,2.0,11.0,68,0.00,,,0.00,Weather View 32 v70,2013-03-02 18:44:00,
2013-03-02 13:49:00,40.0,29.2,29.28,NW,315,1.0,11.0,65,0.00,,,0.00,Weather View 32 v70,2013-03-02 18:49:00,
2013-03-02 13:54:00,40.0,29.5,29.28,West,270,5.0,11.0,66,0.00,,,0.00,Weather View 32 v70,2013-03-02 18:54:00,
2013-03-02 13:59:00,40.0,29.9,29.28,WNW,292,6.0,11.0,67,0.00,,,0.00,Weather View 32 v70,2013-03-02 18:59:00,
2013-03-02 14:04:00,39.0,28.6,29.28,West,270,3.0,11.0,66,0.00,,,0.00,Weather View 32 v70,2013-03-02 19:04:00,
2013-03-02 14:09:00,39.0,29.0,29.28,West,270,5.0,8.0,67,0.00,,,0.00,Weather View 32 v70,2013-03-02 19:09:00,
2013-03-02 14:14:00,39.0,29.0,29.28,West,270,1.0,8.0,67,0.00,,,0.00,Weather View 32 v70,2013-03-02 19:14:00,
2013-03-02 14:19:00,40.0,29.2,29.28,West,270,3.0,8.0,65,0.00,,,0.00,Weather View 32 v70,2013-03-02 19:19:00,
2013-03-02 14:24:00,40.0,29.5,29.27,West,270,3.0,8.0,66,0.00,,,0.00,Weather View 32 v70,2013-03-02 19:24:00,
2013-03-02 14:34:00,40.0,29.5,29.27,West,270,2.0,8.0,66,0.00,,,0.00,Weather View 32 v70,2013-03-02 19:34:00,
2013-03-02 14:39:00,40.0,29.5,29.27,West,270,4.0,8.0,66,0.00,,,0.00,Weather View 32 v70,2013-03-02 19:39:00,
2013-03-02 14:44:00,40.0,29.2,29.27,West,270,6.0,8.0,65,0.00,,,0.00,Weather View 32 v70,2013-03-02 19:44:00,
2013-03-02 14:54:00,40.0,28.8,29.27,WNW,292,6.0,8.0,64,0.00,,,0.00,Weather View 32 v70,2013-03-02 19:54:00,
2013-03-02 15:00:00,40.0,28.4,29.27,WNW,292,7.0,7.0,63,0.00,,,0.00,Weather View 32 v70,2013-03-02 20:00:00,
2013-03-02 15:09:00,40.0,29.5,29.27,NW,315,2.0,7.0,66,0.00,,,0.00,Weather View 32 v70,2013-03-02 20:09:00,
2013-03-02 15:14:00,40.0,29.2,29.27,West,270,1.0,7.0,65,0.00,,,0.00,Weather View 32 v70,2013-03-02 20:14:00,
2013-03-02 15:19:00,40.0,29.2,29.27,NNE,22,0.0,7.0,65,0.00,,,0.00,Weather View 32 v70,2013-03-02 20:19:00,
2013-03-02 15:24:00,40.0,28.8,29.27,West,270,3.0,7.0,64,0.00,,,0.00,Weather View 32 v70,2013-03-02 20:24:00,
2013-03-02 15:29:00,40.0,29.2,29.27,West,270,5.0,7.0,65,0.00,,,0.00,Weather View 32 v70,2013-03-02 20:29:00,
2013-03-02 15:34:00,40.0,28.8,29.27,West,270,1.0,7.0,64,0.00,,,0.00,Weather View 32 v70,2013-03-02 20:34:00,
2013-03-02 15:39:00,39.0,28.2,29.27,West,270,4.0,8.0,65,0.00,,,0.00,Weather View 32 v70,2013-03-02 20:39:00,
2013-03-02 15:44:00,39.0,28.6,29.28,West,270,4.0,8.0,66,0.00,,,0.00,Weather View 32 v70,2013-03-02 20:44:00,
2013-03-02 15:49:00,39.0,29.0,29.28,WNW,292,0.0,8.0,67,0.00,,,0.00,Weather View 32 v70,2013-03-02 20:49:00,
2013-03-02 15:54:00,39.0,28.6,29.28,WSW,247,5.0,8.0,66,0.00,,,0.00,Weather View 32 v70,2013-03-02 20:54:00,
2013-03-02 15:59:00,39.0,29.0,29.28,West,270,0.0,8.0,67,0.00,,,0.00,Weather View 32 v70,2013-03-02 20:59:00,
2013-03-02 16:04:00,39.0,29.0,29.28,NW,315,2.0,8.0,67,0.00,,,0.00,Weather View 32 v70,2013-03-02 21:04:00,
2013-03-02 16:09:00,39.0,29.0,29.28,NW,315,4.0,8.0,67,0.00,,,0.00,Weather View 32 v70,2013-03-02 21:09:00,
2013-03-02 16:14:00,39.0,29.3,29.28,NW,315,0.0,8.0,68,0.00,,,0.00,Weather View 32 v70,2013-03-02 21:14:00,
2013-03-02 16:24:00,38.0,28.0,29.28,NW,315,2.0,8.0,67,0.00,,,0.00,Weather View 32 v70,2013-03-02 21:24:00,
2013-03-02 16:34:00,38.0,28.4,29.29,West,270,2.0,8.0,68,0.00,,,0.00,Weather View 32 v70,2013-03-02 21:34:00,
2013-03-02 16:39:00,38.0,28.7,29.29,WNW,292,0.0,8.0,69,0.00,,,0.00,Weather View 32 v70,2013-03-02 21:39:00,
2013-03-02 16:44:00,38.0,28.4,29.29,West,270,5.0,8.0,68,0.00,,,0.00,Weather View 32 v70,2013-03-02 21:44:00,
2013-03-02 16:49:00,38.0,28.7,29.29,West,270,2.0,8.0,69,0.00,,,0.00,Weather View 32 v70,2013-03-02 21:49:00,
2013-03-02 16:54:00,38.0,28.7,29.29,West,270,3.0,8.0,69,0.00,,,0.00,Weather View 32 v70,2013-03-02 21:54:00,
2013-03-02 16:59:00,38.0,29.1,29.29,NW,315,1.0,8.0,70,0.00,,,0.00,Weather View 32 v70,2013-03-02 21:59:00,
2013-03-02 17:04:00,38.0,28.7,29.29,NW,315,4.0,9.0,69,0.00,,,0.00,Weather View 32 v70,2013-03-02 22:04:00,
2013-03-02 17:09:00,37.0,27.8,29.29,West,270,5.0,9.0,69,0.00,,,0.00,Weather View 32 v70,2013-03-02 22:09:00,
2013-03-02 17:14:00,37.0,28.1,29.29,West,270,0.0,9.0,70,0.00,,,0.00,Weather View 32 v70,2013-03-02 22:14:00,
2013-03-02 17:19:00,37.0,28.1,29.29,WNW,292,0.0,9.0,70,0.00,,,0.00,Weather View 32 v70,2013-03-02 22:19:00,
2013-03-02 17:24:00,37.0,28.1,29.30,West,270,5.0,9.0,70,0.00,,,0.00,Weather View 32 v70,2013-03-02 22:24:00,
2013-03-02 17:34:00,37.0,28.8,29.30,NW,315,0.0,9.0,72,0.00,,,0.00,Weather View 32 v70,2013-03-02 22:34:00,
2013-03-02 17:39:00,36.0,27.2,29.30,NW,315,1.0,9.0,70,0.00,,,0.00,Weather View 32 v70,2013-03-02 22:39:00,
2013-03-02 17:44:00,36.0,27.2,29.30,North,360,1.0,9.0,70,0.00,,,0.00,Weather View 32 v70,2013-03-02 22:44:00,
2013-03-02 17:49:00,36.0,27.5,29.30,NW,315,1.0,9.0,71,0.00,,,0.00,Weather View 32 v70,2013-03-02 22:49:00,
2013-03-02 17:54:00,36.0,27.2,29.30,WNW,292,2.0,9.0,70,0.00,,,0.00,Weather View 32 v70,2013-03-02 22:54:00,
2013-03-02 17:59:00,36.0,27.2,29.30,North,360,0.0,9.0,70,0.00,,,0.00,Weather View 32 v70,2013-03-02 22:59:00,
2013-03-02 18:04:00,36.0,26.8,29.31,WNW,292,5.0,9.0,69,0.00,,,0.00,Weather View 32 v70,2013-03-02 23:04:00,
2013-03-02 18:09:00,36.0,27.2,29.31,WNW,292,2.0,9.0,70,0.00,,,0.00,Weather View 32 v70,2013-03-02 23:09:00,
2013-03-02 18:19:00,35.0,26.5,29.31,NW,315,1.0,9.0,71,0.00,,,0.00,Weather View 32 v70,2013-03-02 23:19:00,
2013-03-02 18:24:00,35.0,26.2,29.31,West,270,5.0,9.0,70,0.00,,,0.00,Weather View 32 v70,2013-03-02 23:24:00,
2013-03-02 18:29:00,35.0,25.9,29.31,West,270,1.0,9.0,69,0.00,,,0.00,Weather View 32 v70,2013-03-02 23:29:00,
2013-03-02 18:34:00,35.0,26.2,29.31,West,270,0.0,8.0,70,0.00,,,0.00,Weather View 32 v70,2013-03-02 23:34:00,
2013-03-02 18:39:00,35.0,26.5,29.31,NW,315,1.0,8.0,71,0.00,,,0.00,Weather View 32 v70,2013-03-02 23:39:00,
2013-03-02 18:44:00,35.0,26.5,29.31,NE,45,0.0,8.0,71,0.00,,,0.00,Weather View 32 v70,2013-03-02 23:44:00,
2013-03-02 18:49:00,35.0,26.2,29.31,West,270,3.0,8.0,70,0.00,,,0.00,Weather View 32 v70,2013-03-02 23:49:00,
2013-03-02 18:54:00,35.0,26.2,29.31,NW,315,2.0,8.0,70,0.00,,,0.00,Weather View 32 v70,2013-03-02 23:54:00,
2013-03-02 18:59:00,35.0,26.5,29.31,West,270,2.0,8.0,71,0.00,,,0.00,Weather View 32 v70,2013-03-02 23:59:00,
2013-03-02 19:04:00,35.0,25.9,29.31,NE,45,1.0,8.0,69,0.00,,,0.00,Weather View 32 v70,2013-03-03 00:04:00,
2013-03-02 19:09:00,35.0,26.5,29.31,NW,315,1.0,8.0,71,0.00,,,0.00,Weather View 32 v70,2013-03-03 00:09:00,
2013-03-02 19:14:00,35.0,26.5,29.31,South,180,0.0,8.0,71,0.00,,,0.00,Weather View 32 v70,2013-03-03 00:14:00,
2013-03-02 19:19:00,34.0,25.6,29.31,South,180,0.0,8.0,71,0.00,,,0.00,Weather View 32 v70,2013-03-03 00:19:00,
2013-03-02 19:29:00,34.0,25.6,29.32,NW,315,0.0,7.0,71,0.00,,,0.00,Weather View 32 v70,2013-03-03 00:29:00,
2013-03-02 19:34:00,34.0,25.9,29.32,West,270,3.0,7.0,72,0.00,,,0.00,Weather View 32 v70,2013-03-03 00:34:00,
2013-03-02 19:39:00,34.0,25.9,29.32,West,270,0.0,7.0,72,0.00,,,0.00,Weather View 32 v70,2013-03-03 00:39:00,
2013-03-02 19:44:00,34.0,25.6,29.32,West,270,0.0,7.0,71,0.00,,,0.00,Weather View 32 v70,2013-03-03 00:44:00,
2013-03-02 19:49:00,34.0,25.9,29.32,NW,315,0.0,7.0,72,0.00,,,0.00,Weather View 32 v70,2013-03-03 00:49:00,
2013-03-02 19:54:00,34.0,25.9,29.33,NW,315,1.0,7.0,72,0.00,,,0.00,Weather View 32 v70,2013-03-03 00:54:00,
2013-03-02 19:59:00,34.0,26.3,29.33,ESE,112,3.0,7.0,73,0.00,,,0.00,Weather View 32 v70,2013-03-03 00:59:00,
2013-03-02 20:04:00,34.0,26.9,29.33,SE,135,1.0,7.0,75,0.00,,,0.00,Weather View 32 v70,2013-03-03 01:04:00,
2013-03-02 20:09:00,34.0,26.6,29.33,North,360,0.0,7.0,74,0.00,,,0.00,Weather View 32 v70,2013-03-03 01:09:00,
2013-03-02 20:14:00,34.0,26.6,29.33,West,270,2.0,7.0,74,0.00,,,0.00,Weather View 32 v70,2013-03-03 01:14:00,
2013-03-02 20:19:00,33.0,25.9,29.33,West,270,0.0,7.0,75,0.00,,,0.00,Weather View 32 v70,2013-03-03 01:19:00,
2013-03-02 20:24:00,33.0,25.6,29.33,West,270,1.0,7.0,74,0.00,,,0.00,Weather View 32 v70,2013-03-03 01:24:00,
2013-03-02 20:29:00,33.0,26.3,29.33,West,270,0.0,7.0,76,0.00,,,0.00,Weather View 32 v70,2013-03-03 01:29:00,
2013-03-02 20:34:00,33.0,25.6,29.33,WNW,292,1.0,10.0,74,0.00,,,0.00,Weather View 32 v70,2013-03-03 01:34:00,
2013-03-02 20:39:00,33.0,26.3,29.33,NW,315,2.0,10.0,76,0.00,,,0.00,Weather View 32 v70,2013-03-03 01:39:00,
2013-03-02 20:49:00,33.0,26.3,29.34,NE,45,0.0,10.0,76,0.00,,,0.00,Weather View 32 v70,2013-03-03 01:49:00,
2013-03-02 20:54:00,33.0,26.6,29.34,NW,315,2.0,10.0,77,0.00,,,0.00,Weather View 32 v70,2013-03-03 01:54:00,
2013-03-02 20:59:00,33.0,26.6,29.34,South,180,0.0,10.0,77,0.00,,,0.00,Weather View 32 v70,2013-03-03 01:59:00,
2013-03-02 21:04:00,33.0,26.6,29.34,West,270,1.0,10.0,77,0.00,,,0.00,Weather View 32 v70,2013-03-03 02:04:00,
2013-03-02 21:09:00,33.0,26.9,29.34,West,270,0.0,10.0,78,0.00,,,0.00,Weather View 32 v70,2013-03-03 02:09:00,
2013-03-02 21:14:00,33.0,26.6,29.34,West,270,0.0,10.0,77,0.00,,,0.00,Weather View 32 v70,2013-03-03 02:14:00,
2013-03-02 21:19:00,33.0,26.9,29.34,WNW,292,0.0,10.0,78,0.00,,,0.00,Weather View 32 v70,2013-03-03 02:19:00,
2013-03-02 21:24:00,33.0,26.9,29.34,WNW,292,1.0,10.0,78,0.00,,,0.00,Weather View 32 v70,2013-03-03 02:24:00,
2013-03-02 21:29:00,33.0,26.9,29.34,NW,315,0.0,10.0,78,0.00,,,0.00,Weather View 32 v70,2013-03-03 02:29:00,
2013-03-02 21:34:00,33.0,26.9,29.33,NW,315,3.0,10.0,78,0.00,,,0.00,Weather View 32 v70,2013-03-03 02:34:00,
2013-03-02 21:39:00,32.0,25.9,29.33,NW,315,0.0,10.0,78,0.00,,,0.00,Weather View 32 v70,2013-03-03 02:39:00,
2013-03-02 21:44:00,32.0,26.2,29.35,WNW,292,0.0,10.0,79,0.00,,,0.00,Weather View 32 v70,2013-03-03 02:44:00,
2013-03-02 21:49:00,32.0,25.6,29.35,West,270,3.0,7.0,77,0.00,,,0.00,Weather View 32 v70,2013-03-03 02:49:00,
2013-03-02 21:54:00,32.0,25.9,29.34,West,270,0.0,7.0,78,0.00,,,0.00,Weather View 32 v70,2013-03-03 02:54:00,
2013-03-02 22:03:00,32.0,26.2,29.34,NW,315,4.0,6.0,79,0.00,,,0.00,Weather View 32 v70,2013-03-03 03:03:00,
2013-03-02 22:09:00,32.0,26.2,29.34,West,270,1.0,6.0,79,0.00,,,0.00,Weather View 32 v70,2013-03-03 03:09:00,
2013-03-02 22:14:00,32.0,26.2,29.34,WNW,292,0.0,6.0,79,0.00,,,0.00,Weather View 32 v70,2013-03-03 03:14:00,
2013-03-02 22:19:00,32.0,26.2,29.34,North,360,0.0,6.0,79,0.00,,,0.00,Weather View 32 v70,2013-03-03 03:19:00,
2013-03-02 22:24:00,32.0,26.5,29.33,West,270,3.0,6.0,80,0.00,,,0.00,Weather View 32 v70,2013-03-03 03:24:00,
2013-03-02 22:29:00,32.0,25.9,29.33,North,360,0.0,6.0,78,0.00,,,0.00,Weather View 32 v70,2013-03-03 03:29:00,
2013-03-02 22:34:00,32.0,26.2,29.33,West,270,2.0,6.0,79,0.00,,,0.00,Weather View 32 v70,2013-03-03 03:34:00,
2013-03-02 22:39:00,32.0,26.5,29.33,West,270,1.0,6.0,80,0.00,,,0.00,Weather View 32 v70,2013-03-03 03:39:00,
2013-03-02 22:44:00,32.0,26.2,29.33,WNW,292,0.0,6.0,79,0.00,,,0.00,Weather View 32 v70,2013-03-03 03:44:00,
2013-03-02 22:49:00,31.0,25.3,29.33,NW,315,1.0,6.0,79,0.00,,,0.00,Weather View 32 v70,2013-03-03 03:49:00,
2013-03-02 22:54:00,32.0,26.5,29.33,WNW,292,0.0,6.0,80,0.00,,,0.00,Weather View 32 v70,2013-03-03 03:54:00,
2013-03-02 22:59:00,31.0,25.6,29.33,NW,315,3.0,6.0,80,0.00,,,0.00,Weather View 32 v70,2013-03-03 03:59:00,
2013-03-02 23:04:00,31.0,25.9,29.33,NW,315,0.0,6.0,81,0.00,,,0.00,Weather View 32 v70,2013-03-03 04:04:00,
2013-03-02 23:09:00,31.0,25.9,29.33,North,360,0.0,6.0,81,0.00,,,0.00,Weather View 32 v70,2013-03-03 04:09:00,
2013-03-02 23:14:00,31.0,26.1,29.33,SE,135,1.0,6.0,82,0.00,,,0.00,Weather View 32 v70,2013-03-03 04:14:00,
2013-03-02 23:19:00,31.0,26.1,29.33,NW,315,0.0,6.0,82,0.00,,,0.00,Weather View 32 v70,2013-03-03 04:19:00,
2013-03-02 23:24:00,31.0,25.9,29.33,NW,315,3.0,6.0,81,0.00,,,0.00,Weather View 32 v70,2013-03-03 04:24:00,
2013-03-02 23:29:00,31.0,26.4,29.33,SE,135,2.0,9.0,83,0.00,,,0.00,Weather View 32 v70,2013-03-03 04:29:00,
2013-03-02 23:34:00,31.0,26.4,29.33,West,270,1.0,9.0,83,0.00,,,0.00,Weather View 32 v70,2013-03-03 04:34:00,
2013-03-02 23:39:00,31.0,26.4,29.33,SW,225,3.0,9.0,83,0.00,,,0.00,Weather View 32 v70,2013-03-03 04:39:00,
2013-03-02 23:44:00,31.0,26.7,29.32,NW,315,2.0,9.0,84,0.00,,,0.00,Weather View 32 v70,2013-03-03 04:44:00,
2013-03-02 23:49:00,31.0,26.7,29.32,WSW,247,0.0,9.0,84,0.00,,,0.00,Weather View 32 v70,2013-03-03 04:49:00,
2013-03-02 23:54:00,31.0,26.7,29.32,West,270,1.0,9.0,84,0.00,,,0.00,Weather View 32 v70,2013-03-03 04:54:00,
2013-03-02 23:59:00,31.0,26.7,29.32,West,270,0.0,9.0,84,0.00,,,0.00,Weather View 32 v70,2013-03-03 04:59:00,